| time (UTC) | temp C | wind direction | speed KPH | gust KPH | rain 1hr cm | rain 24hr cm | rain mn cm | humidity % | barometer mb |
| 20260502162057 | 12 | 303 | 8.0 | 14.5 | 0.00 | 0.00 | 0.00 | 39 | 1020.8 |
| 20260502161619 | 11 | 276 | 4.8 | 16.1 | 0.00 | 0.00 | 0.00 | 37 | 1020.8 |
| 20260502161057 | 12 | 30 | 8.0 | 16.1 | 0.00 | 0.00 | 0.00 | 38 | 1021.0 |
| 20260502160555 | 11 | 34 | 3.2 | 14.5 | 0.00 | 0.00 | 0.00 | 40 | 1020.7 |
| 20260502152057 | 10 | 298 | 6.4 | 14.5 | 0.00 | 0.00 | 0.00 | 41 | 1021.0 |
| 20260502151557 | 10 | 290 | 4.8 | 11.3 | 0.00 | 0.00 | 0.00 | 42 | 1021.0 |
| 20260502151054 | 10 | 292 | 3.2 | 11.3 | 0.00 | 0.00 | 0.00 | 45 | 1021.0 |
| 20260502150556 | 10 | 277 | 3.2 | 11.3 | 0.00 | 0.00 | 0.00 | 44 | 1021.0 |
| 20260502130558 | 4 | 360 | 1.6 | 3.2 | 0.00 | 0.00 | 0.00 | 70 | 1021.1 |
| 20260502130107 | 3 | 355 | 1.6 | 3.2 | 0.00 | 0.00 | 0.00 | 71 | 1021.1 |
| 20260502123557 | 2 | 352 | 1.6 | 4.8 | 0.00 | 0.00 | 0.00 | 78 | 1021.0 |
| 20260502123116 | 2 | 0 | 1.6 | 4.8 | 0.00 | 0.00 | 0.00 | 78 | 1021.0 |
| 20260502122555 | 1 | 352 | 1.6 | 4.8 | 0.00 | 0.00 | 0.00 | 79 | 1021.0 |
| 20260502122056 | 1 | 352 | 1.6 | 4.8 | 0.00 | 0.00 | 0.00 | 80 | 1020.9 |
| 20260502121557 | 1 | 352 | 1.6 | 3.2 | 0.00 | 0.00 | 0.00 | 80 | 1020.8 |
| 20260502121055 | 1 | 5 | 0.0 | 4.8 | 0.00 | 0.00 | 0.00 | 81 | 1020.7 |
| 20260502120558 | 1 | 9 | 1.6 | 4.8 | 0.00 | 0.00 | 0.00 | 81 | 1020.7 |
| 20260502120114 | 0 | 11 | 1.6 | 4.8 | 0.00 | 0.00 | 0.00 | 81 | 1020.7 |
| 20260502115559 | 0 | 16 | 1.6 | 4.8 | 0.00 | 0.00 | 0.00 | 82 | 1020.7 |
| 20260502115054 | 0 | 17 | 1.6 | 4.8 | 0.00 | 0.00 | 0.00 | 82 | 1020.5 |
| 20260502114608 | 0 | 23 | 0.0 | 3.2 | 0.00 | 0.00 | 0.00 | 82 | 1020.6 |
| 20260502114057 | 0 | 0 | 0.0 | 1.6 | 0.00 | 0.00 | 0.00 | 82 | 1020.6 |
| 20260502113554 | 0 | 0 | 0.0 | 1.6 | 0.00 | 0.00 | 0.00 | 81 | 1020.5 |
| 20260502113111 | 0 | 0 | 0.0 | 1.6 | 0.00 | 0.00 | 0.00 | 81 | 1020.4 |
| 20260502112557 | 0 | 0 | 0.0 | 3.2 | 0.00 | 0.00 | 0.00 | 81 | 1020.4 |
| 20260502112054 | 0 | 0 | 0.0 | 3.2 | 0.00 | 0.00 | 0.00 | 81 | 1020.4 |
| 20260502111554 | 0 | 15 | 1.6 | 3.2 | 0.00 | 0.00 | 0.00 | 81 | 1020.4 |
| 20260502111059 | 0 | 0 | 0.0 | 3.2 | 0.00 | 0.00 | 0.00 | 81 | 1020.4 |
| 20260502110555 | 0 | 0 | 0.0 | 3.2 | 0.00 | 0.00 | 0.00 | 80 | 1020.3 |
| 20260502110055 | 0 | 0 | 0.0 | 3.2 | 0.00 | 0.00 | 0.00 | 80 | 1020.2 |
| 20260502105556 | 0 | 0 | 0.0 | 3.2 | 0.00 | 0.00 | 0.00 | 80 | 1020.1 |
| 20260502105054 | 0 | 0 | 0.0 | 3.2 | 0.00 | 0.00 | 0.00 | 80 | 1020.2 |
| 20260502104558 | 0 | 17 | 0.0 | 3.2 | 0.00 | 0.00 | 0.00 | 79 | 1020.1 |
| 20260502104055 | 0 | 0 | 0.0 | 3.2 | 0.00 | 0.00 | 0.00 | 79 | 1020.2 |
| 20260502103559 | 1 | 17 | 0.0 | 3.2 | 0.00 | 0.00 | 0.00 | 79 | 1020.1 |
| 20260502103057 | 1 | 17 | 0.0 | 0.0 | 0.00 | 0.00 | 0.00 | 78 | 1020.0 |
| 20260502102557 | 1 | 0 | 0.0 | 0.0 | 0.00 | 0.00 | 0.00 | 78 | 1020.2 |
| 20260502102058 | 1 | 0 | 0.0 | 0.0 | 0.00 | 0.00 | 0.00 | 77 | 1020.0 |
| 20260502101602 | 1 | 0 | 0.0 | 0.0 | 0.00 | 0.00 | 0.00 | 77 | 1020.0 |
| 20260502101057 | 1 | 0 | 0.0 | 1.6 | 0.00 | 0.00 | 0.00 | 76 | 1019.9 |
| 20260502100558 | 1 | 0 | 0.0 | 3.2 | 0.00 | 0.00 | 0.00 | 76 | 1020.0 |
| 20260502091054 | 1 | 0 | 0.0 | 3.2 | 0.00 | 0.00 | 0.00 | 77 | 1019.9 |
| 20260502090554 | 1 | 17 | 0.0 | 3.2 | 0.00 | 0.00 | 0.00 | 77 | 1019.9 |
| 20260502071059 | 3 | 0 | 0.0 | 1.6 | 0.00 | 0.00 | 0.00 | 68 | 1019.8 |
| 20260502070557 | 3 | 17 | 0.0 | 3.2 | 0.00 | 0.00 | 0.00 | 68 | 1019.9 |
| 20260502070112 | 3 | 0 | 0.0 | 3.2 | 0.00 | 0.00 | 0.00 | 68 | 1019.9 |
| 20260502065556 | 3 | 17 | 1.6 | 3.2 | 0.00 | 0.00 | 0.00 | 68 | 1020.0 |
| 20260502065056 | 3 | 0 | 0.0 | 3.2 | 0.00 | 0.00 | 0.00 | 69 | 1020.0 |
| 20260502064557 | 3 | 0 | 0.0 | 3.2 | 0.00 | 0.00 | 0.00 | 68 | 1020.0 |
| 20260502064056 | 3 | 0 | 0.0 | 3.2 | 0.00 | 0.00 | 0.00 | 68 | 1019.9 |
| 20260502063558 | 3 | 0 | 0.0 | 4.8 | 0.00 | 0.00 | 0.00 | 68 | 1019.9 |
| 20260502063059 | 3 | 17 | 0.0 | 4.8 | 0.00 | 0.00 | 0.00 | 68 | 1020.0 |
| 20260502062557 | 3 | 17 | 1.6 | 4.8 | 0.00 | 0.00 | 0.00 | 68 | 1020.0 |
| 20260502062057 | 3 | 17 | 1.6 | 3.2 | 0.00 | 0.00 | 0.00 | 68 | 1020.0 |
| 20260502061558 | 3 | 17 | 0.0 | 3.2 | 0.00 | 0.00 | 0.00 | 68 | 1019.9 |
| 20260502061058 | 3 | 0 | 0.0 | 0.0 | 0.00 | 0.00 | 0.00 | 68 | 1019.9 |
| 20260502060556 | 3 | 0 | 0.0 | 1.6 | 0.00 | 0.00 | 0.00 | 68 | 1019.9 |
| 20260502060057 | 4 | 0 | 0.0 | 3.2 | 0.00 | 0.00 | 0.00 | 67 | 1019.9 |
| 20260502055559 | 4 | 0 | 0.0 | 3.2 | 0.00 | 0.00 | 0.00 | 68 | 1019.9 |
| 20260502055100 | 4 | 0 | 0.0 | 3.2 | 0.00 | 0.00 | 0.00 | 68 | 1019.9 |
| 20260502054558 | 4 | 0 | 0.0 | 3.2 | 0.00 | 0.00 | 0.00 | 67 | 1019.9 |
| 20260502054056 | 4 | 17 | 0.0 | 3.2 | 0.00 | 0.00 | 0.00 | 67 | 1019.9 |
| 20260502053556 | 4 | 17 | 0.0 | 3.2 | 0.00 | 0.00 | 0.00 | 67 | 1019.7 |
| 20260502053101 | 4 | 17 | 0.0 | 3.2 | 0.00 | 0.00 | 0.00 | 66 | 1019.9 |
| 20260502052556 | 5 | 17 | 0.0 | 3.2 | 0.00 | 0.00 | 0.00 | 66 | 1019.7 |
| 20260502052056 | 5 | 0 | 0.0 | 3.2 | 0.00 | 0.00 | 0.00 | 66 | 1019.8 |
| 20260502051609 | 5 | 0 | 0.0 | 3.2 | 0.00 | 0.00 | 0.00 | 65 | 1019.7 |
| 20260502051057 | 5 | 17 | 0.0 | 3.2 | 0.00 | 0.00 | 0.00 | 65 | 1019.7 |
| 20260502050556 | 5 | 0 | 0.0 | 3.2 | 0.00 | 0.00 | 0.00 | 64 | 1019.5 |
| 20260502050101 | 5 | 0 | 0.0 | 1.6 | 0.00 | 0.00 | 0.00 | 63 | 1019.5 |
| 20260502045557 | 5 | 17 | 0.0 | 3.2 | 0.00 | 0.00 | 0.00 | 63 | 1019.5 |
| 20260502045056 | 5 | 17 | 1.6 | 4.8 | 0.00 | 0.00 | 0.00 | 63 | 1019.4 |
| 20260502044630 | 6 | 17 | 1.6 | 4.8 | 0.00 | 0.00 | 0.00 | 63 | 1019.5 |
| 20260502044056 | 6 | 0 | 0.0 | 3.2 | 0.00 | 0.00 | 0.00 | 62 | 1019.4 |
| 20260502043600 | 6 | 17 | 0.0 | 3.2 | 0.00 | 0.00 | 0.00 | 62 | 1019.4 |
| 20260502043104 | 6 | 0 | 0.0 | 3.2 | 0.00 | 0.00 | 0.00 | 61 | 1019.4 |
| 20260502042556 | 6 | 0 | 0.0 | 3.2 | 0.00 | 0.00 | 0.00 | 61 | 1019.4 |
| 20260502042057 | 6 | 0 | 0.0 | 3.2 | 0.00 | 0.00 | 0.00 | 61 | 1019.5 |
| 20260502041556 | 6 | 0 | 0.0 | 3.2 | 0.00 | 0.00 | 0.00 | 61 | 1019.4 |
| 20260502041058 | 6 | 0 | 0.0 | 3.2 | 0.00 | 0.00 | 0.00 | 60 | 1019.4 |
| 20260502040557 | 7 | 0 | 0.0 | 3.2 | 0.00 | 0.00 | 0.00 | 59 | 1019.4 |
| 20260502040104 | 7 | 0 | 0.0 | 3.2 | 0.00 | 0.00 | 0.00 | 59 | 1019.3 |
| 20260502035556 | 7 | 0 | 0.0 | 3.2 | 0.00 | 0.00 | 0.00 | 58 | 1019.2 |
| 20260502035053 | 7 | 0 | 0.0 | 4.8 | 0.00 | 0.00 | 0.00 | 57 | 1019.3 |
| 20260502034556 | 7 | 0 | 0.0 | 4.8 | 0.00 | 0.00 | 0.00 | 57 | 1019.4 |
| 20260502034056 | 7 | 0 | 0.0 | 4.8 | 0.00 | 0.00 | 0.00 | 56 | 1019.4 |
| 20260502033556 | 7 | 0 | 0.0 | 3.2 | 0.00 | 0.00 | 0.00 | 56 | 1019.4 |
| 20260502033057 | 8 | 0 | 0.0 | 3.2 | 0.00 | 0.00 | 0.00 | 55 | 1019.3 |
| 20260502032555 | 8 | 17 | 0.0 | 4.8 | 0.00 | 0.00 | 0.00 | 54 | 1019.1 |
| 20260502032056 | 8 | 0 | 1.6 | 4.8 | 0.00 | 0.00 | 0.00 | 54 | 1019.1 |
| 20260502031556 | 8 | 17 | 0.0 | 4.8 | 0.00 | 0.00 | 0.00 | 53 | 1019.1 |
| 20260502031057 | 8 | 17 | 1.6 | 4.8 | 0.00 | 0.00 | 0.00 | 53 | 1019.2 |
| 20260502030600 | 8 | 16 | 0.0 | 3.2 | 0.00 | 0.00 | 0.00 | 53 | 1019.2 |
| 20260502025557 | 9 | 16 | 1.6 | 4.8 | 0.00 | 0.00 | 0.00 | 52 | 1019.3 |
| 20260502025057 | 9 | 16 | 1.6 | 4.8 | 0.00 | 0.00 | 0.00 | 52 | 1019.1 |
| 20260502024558 | 9 | 15 | 1.6 | 4.8 | 0.00 | 0.00 | 0.00 | 52 | 1019.1 |
| 20260502024056 | 9 | 15 | 1.6 | 4.8 | 0.00 | 0.00 | 0.00 | 53 | 1018.9 |
| 20260502023553 | 9 | 15 | 1.6 | 4.8 | 0.00 | 0.00 | 0.00 | 53 | 1018.9 |
| 20260502023059 | 9 | 15 | 0.0 | 3.2 | 0.00 | 0.00 | 0.00 | 53 | 1018.8 |
| 20260502022555 | 10 | 0 | 0.0 | 3.2 | 0.00 | 0.00 | 0.00 | 52 | 1018.7 |
| 20260502022127 | 10 | 15 | 0.0 | 4.8 | 0.00 | 0.00 | 0.00 | 52 | 1018.7 |
| 20260502021609 | 10 | 0 | 0.0 | 4.8 | 0.00 | 0.00 | 0.00 | 52 | 1018.6 |
| 20260502021053 | 10 | 15 | 0.0 | 3.2 | 0.00 | 0.00 | 0.00 | 52 | 1018.4 |
| 20260502020556 | 10 | 0 | 0.0 | 3.2 | 0.00 | 0.00 | 0.00 | 51 | 1018.3 |
| 20260502020058 | 10 | 0 | 0.0 | 6.4 | 0.00 | 0.00 | 0.00 | 51 | 1018.4 |
| 20260502015554 | 10 | 15 | 1.6 | 6.4 | 0.00 | 0.00 | 0.00 | 50 | 1018.3 |
| 20260502015056 | 10 | 14 | 1.6 | 4.8 | 0.00 | 0.00 | 0.00 | 50 | 1018.3 |
| 20260502014557 | 10 | 14 | 1.6 | 8.0 | 0.00 | 0.00 | 0.00 | 50 | 1018.3 |
| 20260502014056 | 10 | 13 | 1.6 | 8.0 | 0.00 | 0.00 | 0.00 | 50 | 1018.3 |
| 20260502013554 | 10 | 30 | 1.6 | 6.4 | 0.00 | 0.00 | 0.00 | 50 | 1018.2 |
| 20260502013100 | 10 | 33 | 1.6 | 4.8 | 0.00 | 0.00 | 0.00 | 50 | 1018.1 |
| 20260502012556 | 10 | 33 | 1.6 | 8.0 | 0.00 | 0.00 | 0.00 | 49 | 1018.1 |
| 20260502012056 | 10 | 32 | 3.2 | 8.0 | 0.00 | 0.00 | 0.00 | 49 | 1017.9 |
| 20260502011557 | 10 | 34 | 4.8 | 8.0 | 0.00 | 0.00 | 0.00 | 49 | 1017.9 |
| 20260502011053 | 10 | 30 | 3.2 | 8.0 | 0.00 | 0.00 | 0.00 | 49 | 1018.0 |
| 20260502010556 | 10 | 32 | 3.2 | 8.0 | 0.00 | 0.00 | 0.00 | 48 | 1017.8 |
| 20260502010058 | 10 | 26 | 3.2 | 9.7 | 0.00 | 0.00 | 0.00 | 48 | 1017.8 |
| 20260502005556 | 10 | 26 | 3.2 | 14.5 | 0.00 | 0.00 | 0.00 | 48 | 1017.8 |
| 20260502005056 | 11 | 34 | 1.6 | 14.5 | 0.00 | 0.00 | 0.00 | 48 | 1017.7 |
| 20260502004603 | 11 | 26 | 4.8 | 12.9 | 0.00 | 0.00 | 0.00 | 47 | 1017.8 |
| 20260502004056 | 11 | 28 | 3.2 | 12.9 | 0.00 | 0.00 | 0.00 | 47 | 1017.6 |
| 20260502003553 | 11 | 33 | 4.8 | 12.9 | 0.00 | 0.00 | 0.00 | 46 | 1017.6 |
| 20260502003053 | 11 | 42 | 4.8 | 12.9 | 0.00 | 0.00 | 0.00 | 46 | 1017.6 |
| 20260502002557 | 11 | 24 | 4.8 | 14.5 | 0.00 | 0.00 | 0.00 | 47 | 1017.5 |
| 20260502002053 | 11 | 39 | 4.8 | 14.5 | 0.00 | 0.00 | 0.00 | 46 | 1017.6 |
| 20260502001607 | 11 | 32 | 6.4 | 14.5 | 0.00 | 0.00 | 0.00 | 45 | 1017.4 |
| 20260502001056 | 11 | 5 | 6.4 | 19.3 | 0.00 | 0.00 | 0.00 | 45 | 1017.5 |
| 20260502000555 | 11 | 41 | 8.0 | 19.3 | 0.00 | 0.00 | 0.00 | 45 | 1017.4 |
| 20260502000114 | 12 | 40 | 8.0 | 19.3 | 0.00 | 0.00 | 0.00 | 44 | 1017.3 |
| 20260501235556 | 11 | 29 | 8.0 | 22.5 | 0.00 | 0.00 | 0.00 | 44 | 1017.4 |
| 20260501235055 | 11 | 27 | 11.3 | 25.7 | 0.00 | 0.00 | 0.00 | 45 | 1017.2 |
| 20260501234600 | 11 | 13 | 9.7 | 25.7 | 0.00 | 0.00 | 0.00 | 45 | 1017.3 |
| 20260501234055 | 12 | 24 | 9.7 | 19.3 | 0.00 | 0.00 | 0.00 | 45 | 1017.3 |
| 20260501233556 | 12 | 24 | 8.0 | 19.3 | 0.00 | 0.00 | 0.00 | 44 | 1017.3 |
| 20260501233104 | 12 | 31 | 4.8 | 17.7 | 0.00 | 0.00 | 0.00 | 45 | 1017.4 |
| 20260501232556 | 12 | 12 | 6.4 | 17.7 | 0.00 | 0.00 | 0.00 | 44 | 1017.3 |
| 20260501232100 | 12 | 36 | 6.4 | 17.7 | 0.00 | 0.00 | 0.00 | 45 | 1017.4 |
| 20260501231558 | 12 | 5 | 6.4 | 17.7 | 0.00 | 0.00 | 0.00 | 45 | 1017.4 |
| 20260501231055 | 12 | 49 | 6.4 | 14.5 | 0.00 | 0.00 | 0.00 | 44 | 1017.3 |
| 20260501230555 | 12 | 36 | 4.8 | 14.5 | 0.00 | 0.00 | 0.00 | 45 | 1017.2 |
| 20260501225555 | 12 | 74 | 6.4 | 14.5 | 0.00 | 0.00 | 0.00 | 44 | 1017.4 |
| 20260501225055 | 12 | 65 | 4.8 | 19.3 | 0.00 | 0.00 | 0.00 | 44 | 1017.5 |
| 20260501224557 | 12 | 28 | 6.4 | 19.3 | 0.00 | 0.00 | 0.00 | 44 | 1017.4 |
| 20260501224058 | 12 | 26 | 8.0 | 19.3 | 0.00 | 0.00 | 0.00 | 44 | 1017.3 |
| 20260501223555 | 12 | 51 | 6.4 | 16.1 | 0.00 | 0.00 | 0.00 | 45 | 1017.2 |
| 20260501223055 | 12 | 44 | 6.4 | 19.3 | 0.00 | 0.00 | 0.00 | 44 | 1017.3 |
| 20260501222557 | 12 | 51 | 9.7 | 19.3 | 0.00 | 0.00 | 0.00 | 44 | 1017.3 |
| 20260501222055 | 12 | 46 | 4.8 | 14.5 | 0.00 | 0.00 | 0.00 | 44 | 1017.3 |
| 20260501221609 | 12 | 40 | 4.8 | 14.5 | 0.00 | 0.00 | 0.00 | 43 | 1017.2 |
| 20260501221057 | 12 | 47 | 4.8 | 16.1 | 0.00 | 0.00 | 0.00 | 43 | 1017.3 |
| 20260501220555 | 12 | 60 | 6.4 | 16.1 | 0.00 | 0.00 | 0.00 | 43 | 1017.1 |
| 20260501220108 | 12 | 20 | 4.8 | 14.5 | 0.00 | 0.00 | 0.00 | 44 | 1017.1 |
| 20260501215555 | 12 | 0 | 3.2 | 19.3 | 0.00 | 0.00 | 0.00 | 44 | 1017.1 |
| 20260501215056 | 12 | 22 | 4.8 | 19.3 | 0.00 | 0.00 | 0.00 | 44 | 1017.1 |
| 20260501214607 | 12 | 13 | 6.4 | 22.5 | 0.00 | 0.00 | 0.00 | 43 | 1017.1 |
| 20260501214055 | 12 | 48 | 8.0 | 22.5 | 0.00 | 0.00 | 0.00 | 44 | 1017.1 |
| 20260501213556 | 12 | 25 | 6.4 | 16.1 | 0.00 | 0.00 | 0.00 | 43 | 1017.0 |
| 20260501213105 | 12 | 55 | 4.8 | 16.1 | 0.00 | 0.00 | 0.00 | 43 | 1017.1 |
| 20260501212556 | 12 | 28 | 9.7 | 16.1 | 0.00 | 0.00 | 0.00 | 42 | 1017.1 |
| 20260501212056 | 12 | 22 | 6.4 | 17.7 | 0.00 | 0.00 | 0.00 | 42 | 1017.0 |
| 20260501211612 | 12 | 30 | 4.8 | 17.7 | 0.00 | 0.00 | 0.00 | 43 | 1017.1 |
| 20260501211056 | 12 | 65 | 6.4 | 19.3 | 0.00 | 0.00 | 0.00 | 43 | 1017.1 |
| 20260501210556 | 12 | 66 | 8.0 | 19.3 | 0.00 | 0.00 | 0.00 | 43 | 1017.2 |
| 20260501210100 | 12 | 46 | 6.4 | 22.5 | 0.00 | 0.00 | 0.00 | 43 | 1017.3 |
| 20260501205554 | 12 | 39 | 8.0 | 22.5 | 0.00 | 0.00 | 0.00 | 43 | 1017.3 |
| 20260501205059 | 12 | 11 | 9.7 | 22.5 | 0.00 | 0.00 | 0.00 | 43 | 1017.3 |
| 20260501204600 | 12 | 29 | 6.4 | 16.1 | 0.00 | 0.00 | 0.00 | 42 | 1017.3 |
| 20260501204058 | 12 | 27 | 8.0 | 16.1 | 0.00 | 0.00 | 0.00 | 41 | 1017.5 |
| 20260501203555 | 12 | 51 | 6.4 | 16.1 | 0.00 | 0.00 | 0.00 | 42 | 1017.2 |
| 20260501203100 | 12 | 9 | 4.8 | 19.3 | 0.00 | 0.00 | 0.00 | 43 | 1017.3 |
| 20260501202556 | 12 | 33 | 8.0 | 25.7 | 0.00 | 0.00 | 0.00 | 42 | 1017.3 |
| 20260501202058 | 13 | 15 | 8.0 | 25.7 | 0.00 | 0.00 | 0.00 | 41 | 1017.4 |
| 20260501201600 | 13 | 14 | 9.7 | 20.9 | 0.00 | 0.00 | 0.00 | 40 | 1017.2 |
| 20260501201056 | 12 | 40 | 8.0 | 22.5 | 0.00 | 0.00 | 0.00 | 40 | 1017.3 |
| 20260501200555 | 12 | 25 | 8.0 | 22.5 | 0.00 | 0.00 | 0.00 | 41 | 1017.4 |
| 20260501200057 | 12 | 34 | 8.0 | 19.3 | 0.00 | 0.00 | 0.00 | 42 | 1017.4 |
| 20260501195556 | 12 | 24 | 8.0 | 19.3 | 0.00 | 0.00 | 0.00 | 41 | 1017.4 |
| 20260501195056 | 13 | 12 | 4.8 | 19.3 | 0.00 | 0.00 | 0.00 | 41 | 1017.5 |
| 20260501194618 | 13 | 17 | 6.4 | 19.3 | 0.00 | 0.00 | 0.00 | 43 | 1017.5 |
| 20260501194055 | 13 | 19 | 6.4 | 19.3 | 0.00 | 0.00 | 0.00 | 43 | 1017.5 |
| 20260501193555 | 12 | 360 | 8.0 | 19.3 | 0.00 | 0.00 | 0.00 | 44 | 1017.5 |
| 20260501193056 | 12 | 51 | 8.0 | 19.3 | 0.00 | 0.00 | 0.00 | 43 | 1017.4 |
| 20260501192555 | 12 | 42 | 9.7 | 19.3 | 0.00 | 0.00 | 0.00 | 42 | 1017.5 |
| 20260501192055 | 12 | 23 | 4.8 | 16.1 | 0.00 | 0.00 | 0.00 | 44 | 1017.4 |
| 20260501191558 | 12 | 5 | 9.7 | 16.1 | 0.00 | 0.00 | 0.00 | 44 | 1017.5 |
| 20260501191055 | 12 | 36 | 4.8 | 12.9 | 0.00 | 0.00 | 0.00 | 45 | 1017.5 |
| 20260501190556 | 12 | 35 | 4.8 | 20.9 | 0.00 | 0.00 | 0.00 | 42 | 1017.6 |
| 20260501190056 | 12 | 30 | 8.0 | 20.9 | 0.00 | 0.00 | 0.00 | 45 | 1017.5 |
| 20260501185554 | 12 | 338 | 8.0 | 17.7 | 0.00 | 0.00 | 0.00 | 45 | 1017.5 |
| 20260501185058 | 12 | 32 | 6.4 | 16.1 | 0.00 | 0.00 | 0.00 | 43 | 1017.3 |
| 20260501184557 | 12 | 331 | 4.8 | 24.1 | 0.00 | 0.00 | 0.00 | 44 | 1017.4 |
| 20260501184055 | 12 | 28 | 9.7 | 24.1 | 0.00 | 0.00 | 0.00 | 44 | 1017.4 |
| 20260501183558 | 12 | 15 | 6.4 | 19.3 | 0.00 | 0.00 | 0.00 | 47 | 1017.4 |
| 20260501183057 | 12 | 13 | 9.7 | 19.3 | 0.00 | 0.00 | 0.00 | 47 | 1017.4 |
| 20260501182556 | 12 | 5 | 6.4 | 14.5 | 0.00 | 0.00 | 0.00 | 46 | 1017.2 |
| 20260501182054 | 12 | 44 | 3.2 | 16.1 | 0.00 | 0.00 | 0.00 | 46 | 1017.4 |
| 20260501181618 | 12 | 37 | 6.4 | 16.1 | 0.00 | 0.00 | 0.00 | 48 | 1017.3 |
| 20260501181055 | 11 | 36 | 6.4 | 16.1 | 0.00 | 0.00 | 0.00 | 48 | 1017.4 |
| 20260501180556 | 11 | 24 | 4.8 | 17.7 | 0.00 | 0.00 | 0.00 | 49 | 1017.4 |
| 20260501180058 | 11 | 32 | 8.0 | 17.7 | 0.00 | 0.00 | 0.00 | 50 | 1017.5 |
| 20260501175555 | 11 | 34 | 8.0 | 17.7 | 0.00 | 0.00 | 0.00 | 49 | 1017.5 |
| 20260501175055 | 11 | 49 | 4.8 | 19.3 | 0.00 | 0.00 | 0.00 | 50 | 1017.5 |
| 20260501174558 | 11 | 37 | 6.4 | 19.3 | 0.00 | 0.00 | 0.00 | 51 | 1017.6 |
| 20260501174056 | 11 | 23 | 8.0 | 19.3 | 0.00 | 0.00 | 0.00 | 51 | 1017.4 |
| 20260501173555 | 11 | 360 | 6.4 | 19.3 | 0.00 | 0.00 | 0.00 | 51 | 1017.6 |
| 20260501173113 | 11 | 355 | 8.0 | 16.1 | 0.00 | 0.00 | 0.00 | 48 | 1017.5 |
| 20260501172555 | 12 | 303 | 4.8 | 14.5 | 0.00 | 0.00 | 0.00 | 52 | 1017.5 |
| 20260501172054 | 11 | 29 | 4.8 | 17.7 | 0.00 | 0.00 | 0.00 | 55 | 1017.5 |
| 20260501171555 | 11 | 319 | 4.8 | 27.4 | 0.00 | 0.00 | 0.00 | 55 | 1017.4 |
| 20260501171057 | 11 | 46 | 8.0 | 27.4 | 0.00 | 0.00 | 0.00 | 55 | 1017.5 |
| 20260501170556 | 11 | 5 | 4.8 | 16.1 | 0.00 | 0.00 | 0.00 | 55 | 1017.5 |
| 20260501170056 | 11 | 35 | 8.0 | 20.9 | 0.00 | 0.00 | 0.00 | 55 | 1017.5 |
| 20260501165555 | 11 | 22 | 9.7 | 20.9 | 0.00 | 0.00 | 0.00 | 57 | 1017.5 |
| 20260501165055 | 11 | 13 | 8.0 | 20.9 | 0.00 | 0.00 | 0.00 | 55 | 1017.5 |
| 20260501164558 | 11 | 21 | 8.0 | 20.9 | 0.00 | 0.00 | 0.00 | 57 | 1017.5 |
| 20260501164054 | 11 | 22 | 9.7 | 17.7 | 0.00 | 0.00 | 0.00 | 56 | 1017.4 |
| 20260501163557 | 11 | 20 | 6.4 | 17.7 | 0.00 | 0.00 | 0.00 | 59 | 1017.5 |
| 20260501163059 | 11 | 24 | 6.4 | 20.9 | 0.00 | 0.00 | 0.00 | 59 | 1017.5 |
| 20260501162559 | 11 | 24 | 6.4 | 24.1 | 0.00 | 0.00 | 0.00 | 58 | 1017.4 |